Weather Roundup
Issued by NWS Chicago, IL

Home | Current Version | Previous Version | Graphics & Text | Print | Product List | Glossary On
Versions: 1 2 3 4 5 6 7 8 9 10 11 12 13 14 15 16 17 18 19 20 21 22 23 24 25 26 27 28 29 30 31 32 33 34 35 36 37 38 39 40 41 42 43 44 45 46 47 48 49 50
000
NZUS59 KLOT 010800
HRRLOT

CHICAGO AREA WEATHER ROUNDUP
NATIONAL WEATHER SERVICE CHICAGO/ROMEOVILLE IL
200 AM CST SUN MAR 01 2015

NOTE: "FAIR" INDICATES FEW OR NO CLOUDS BELOW 12,000 FEET WITH NO
SIGNIFICANT WEATHER AND/OR OBSTRUCTIONS TO VISIBILITY.

* THESE STATIONS ARE NOT UNDER NWS QUALITY CONTROL. THEY ALSO MAY NOT
  REPORT WEATHER SUCH AS PRECIPITATION OR FOG.

ILZ005-006-012>014-019>023-010900-
NORTHEAST ILLINOIS

CITY           SKY/WX    TMP DP  RH WIND       PRES   REMARKS
OHARE          PTCLDY    16  13  88 S3        30.41F
MIDWAY         CLOUDY    21  15  78 S6        30.42F WCI  13
AURORA         MOCLDY    15  10  80 CALM      30.42S HAZE
LANSING*       CLOUDY    19  16  87 CALM      30.43S
WAUKEGAN       MOCLDY    10   8  92 CALM      30.42S FOG
DUPAGE AIRPORT PTCLDY    14  11  87 CALM      30.41S
WHEELING       MOCLDY    16  12  84 SW3       30.43F FOG
NORTHERLY IS     N/A     20  15  81 CALM        N/A
$$

WIZ051-052-058>065-066-070>072-010900-
SOUTHEAST WISCONSIN

CITY           SKY/WX    TMP DP  RH WIND       PRES   REMARKS
MILWAUKEE      PTCLDY    15   9  76 SW3       30.42F
KENOSHA*       PTCLDY    10   7  87 CALM      30.42F FOG
RACINE*        PTCLDY    13   9  84 CALM      30.43F
$$

INZ001>003-010>013-019-020-010900-
NORTHWEST INDIANA

CITY           SKY/WX    TMP DP  RH WIND       PRES   REMARKS
GARY*          CLOUDY    21  14  74 CALM      30.43F
MICHIGAN CITY* NOT AVBL
RENSSELAER*    NOT AVBL
$$

LMZ740>746-010900-
SOUTHERN LAKE MICHIGAN

STATION/POSITION TIME  SKY/WX   TEMP WIND        PRES    VSBY
                                AIR  DIR/SP/G
                 (UTC)          (F)  (DEG/KT/KT) (MB)    (MI)
HARRISON CRIB    0700            20  170/ 11/ 14   N/A
BURNHAM HARBOR   0800            20  200/  2/  5   N/A
CALUMET HARBOR   0700            19  160/  3/  6 1029.2F
BURNS HARBOR     NOT AVBL
MICHIGAN CITY    0700            18  130/  5/  7   N/A
$$

ABBREVIATIONS USED IN REMARKS
   TC - TEMPERATURE IN CELSIUS
  WCI - WIND CHILL INDEX
   HX - HEAT INDEX
  VSB - VISIBILITY
$$


USA.gov is the U.S. government's official web portal to all federal, state and local government web resources and services.